EWG5AB EDDH-LDSP

Flight info

Callsign EWG5AB
Flight time 1h 47m
Altitude 37000
Route AMLUH2G/33 AMLUH M852 DENIX DCT ZUCKA DCT LASTO DCT RODIS DCT KUMOM DCT MALUG DCT RISOM DCT OSLOP DCT PUL DCT MINTU DCT SAL SAL1Z
Aircraft A320/M-SDE3FGHIRWY/LB1

Departure

Time 2026-05-07 09:04
Airport Hamburg Helmut Schmidt Airport (EDDH)

Arrival

Time 2026-05-07 10:51
Airport Split Saint Jerome Airport (LDSP)
Time Latitude Longitude Altitude Speed Heading
2026-05-07 08:23 53.63105 10.00385 51 ft 0 kts 86°
2026-05-07 08:57 53.63105 10.00369 51 ft 4 kts 86°
2026-05-07 08:57 53.63103 10.00324 51 ft 4 kts 86°
2026-05-07 08:58 53.63101 10.00287 51 ft 4 kts 98°
2026-05-07 08:58 53.63114 10.00260 47 ft 4 kts 170°
2026-05-07 08:58 53.63130 10.00257 47 ft 0 kts 176°
2026-05-07 09:01 53.63096 10.00225 48 ft 7 kts 225°
2026-05-07 09:01 53.63062 10.00174 50 ft 6 kts 213°
2026-05-07 09:01 53.63013 10.00124 50 ft 8 kts 212°
2026-05-07 09:01 53.62967 10.00075 48 ft 7 kts 212°
2026-05-07 09:02 53.62934 10.00033 50 ft 6 kts 227°
2026-05-07 09:02 53.62912 9.99964 50 ft 8 kts 244°
2026-05-07 09:02 53.62890 9.99890 48 ft 7 kts 242°
2026-05-07 09:02 53.62859 9.99790 47 ft 6 kts 242°
2026-05-07 09:03 53.62866 9.99746 49 ft 3 kts 323°
2026-05-07 09:03 53.62952 9.99669 49 ft 42 kts 332°
2026-05-07 09:03 53.63456 9.99236 51 ft 112 kts 333°
2026-05-07 09:03 53.64292 9.98517 53 ft 162 kts 332°
2026-05-07 09:04 53.65350 9.97574 485 ft 172 kts 335°
2026-05-07 09:04 53.66423 9.96661 1241 ft 173 kts 337°
2026-05-07 09:04 53.67532 9.95726 1755 ft 186 kts 336°
2026-05-07 09:04 53.68751 9.94798 2424 ft 199 kts 348°
2026-05-07 09:05 53.70155 9.94633 2980 ft 205 kts
2026-05-07 09:05 53.71596 9.94748 3822 ft 209 kts 11°
2026-05-07 09:05 53.72911 9.95669 4560 ft 207 kts 47°
2026-05-07 09:05 53.73557 9.97812 5380 ft 205 kts 78°
2026-05-07 09:06 53.73857 10.00203 6146 ft 210 kts 76°
2026-05-07 09:06 53.74053 10.02729 6638 ft 230 kts 94°
2026-05-07 09:06 53.73459 10.05378 7003 ft 259 kts 128°
2026-05-07 09:06 53.71955 10.07182 7628 ft 275 kts 152°
2026-05-07 09:07 53.70177 10.08478 8404 ft 281 kts 156°
2026-05-07 09:07 53.68330 10.09667 9209 ft 286 kts 158°
2026-05-07 09:07 53.66446 10.10836 9994 ft 290 kts 159°
2026-05-07 09:07 53.64512 10.12046 10448 ft 307 kts 159°
2026-05-07 09:08 53.62438 10.13364 10654 ft 330 kts 159°
2026-05-07 09:08 53.60240 10.14792 10985 ft 346 kts 158°
2026-05-07 09:08 53.57968 10.16287 11617 ft 353 kts 158°
2026-05-07 09:08 53.55669 10.17804 12305 ft 357 kts 158°
2026-05-07 09:09 53.53339 10.19348 12999 ft 361 kts 158°
2026-05-07 09:09 53.51023 10.20881 13672 ft 365 kts 159°
2026-05-07 09:09 53.48622 10.22464 14295 ft 369 kts 159°
2026-05-07 09:09 53.46215 10.24040 14906 ft 372 kts 159°
2026-05-07 09:10 53.43791 10.25610 15523 ft 375 kts 159°
2026-05-07 09:10 53.41354 10.27188 16140 ft 378 kts 160°
2026-05-07 09:10 53.38898 10.28789 16754 ft 380 kts 159°
2026-05-07 09:10 53.36426 10.30403 17365 ft 383 kts 160°
2026-05-07 09:11 53.33932 10.32030 17956 ft 385 kts 160°
2026-05-07 09:11 53.31429 10.33660 18512 ft 388 kts 160°
2026-05-07 09:11 53.28901 10.35305 19022 ft 390 kts 160°
2026-05-07 09:11 53.26367 10.36951 19517 ft 393 kts 160°
2026-05-07 09:12 53.23811 10.38607 20015 ft 395 kts 160°
2026-05-07 09:12 53.21242 10.40272 20515 ft 397 kts 160°
2026-05-07 09:12 53.19499 10.41401 20841 ft 399 kts 160°
2026-05-07 09:12 53.16907 10.43077 21314 ft 401 kts 160°
2026-05-07 09:13 53.14261 10.44784 21798 ft 403 kts 161°
2026-05-07 09:13 53.11607 10.46089 22233 ft 404 kts 170°
2026-05-07 09:13 53.08838 10.46956 22703 ft 406 kts 171°
2026-05-07 09:13 53.06050 10.47822 23142 ft 409 kts 171°
2026-05-07 09:14 53.03246 10.48692 23587 ft 411 kts 171°
2026-05-07 09:14 53.00426 10.49565 23969 ft 413 kts 171°
2026-05-07 09:14 52.97593 10.50444 24342 ft 415 kts 171°
2026-05-07 09:14 52.94726 10.51331 24697 ft 417 kts 171°
2026-05-07 09:15 52.91838 10.52227 25057 ft 419 kts 171°
2026-05-07 09:15 52.89015 10.53102 25400 ft 421 kts 171°
2026-05-07 09:15 52.86121 10.53998 25750 ft 423 kts 171°
2026-05-07 09:15 52.83218 10.54892 26093 ft 425 kts 171°
2026-05-07 09:16 52.80303 10.55789 26445 ft 427 kts 171°
2026-05-07 09:16 52.77343 10.56704 26795 ft 429 kts 170°
2026-05-07 09:16 52.74381 10.57619 27140 ft 431 kts 171°
2026-05-07 09:16 52.71443 10.58522 27468 ft 433 kts 170°
2026-05-07 09:17 52.68480 10.59431 27802 ft 434 kts 171°
2026-05-07 09:17 52.65504 10.60336 28116 ft 436 kts 171°
2026-05-07 09:17 52.62518 10.61242 28418 ft 437 kts 170°
2026-05-07 09:17 52.59473 10.62169 28729 ft 439 kts 170°
2026-05-07 09:18 52.56470 10.63087 29036 ft 441 kts 170°
2026-05-07 09:18 52.53446 10.64009 29305 ft 442 kts 170°
2026-05-07 09:18 52.50423 10.64929 29608 ft 444 kts 170°
2026-05-07 09:18 52.47380 10.65855 29903 ft 445 kts 170°
2026-05-07 09:19 52.44325 10.66780 30270 ft 444 kts 170°
2026-05-07 09:19 52.41267 10.67700 30605 ft 443 kts 170°
2026-05-07 09:19 52.38236 10.68613 30931 ft 443 kts 170°
2026-05-07 09:19 52.35209 10.69527 31260 ft 442 kts 170°
2026-05-07 09:20 52.32182 10.70438 31575 ft 442 kts 170°
2026-05-07 09:20 52.29156 10.71345 31887 ft 442 kts 170°
2026-05-07 09:20 52.26143 10.72247 32189 ft 441 kts 170°
2026-05-07 09:20 52.23121 10.73152 32487 ft 441 kts 171°
2026-05-07 09:21 52.20099 10.74058 32790 ft 441 kts 171°
2026-05-07 09:21 52.17055 10.74972 33091 ft 441 kts 171°
2026-05-07 09:21 52.14061 10.75873 33384 ft 441 kts 171°
2026-05-07 09:21 52.11002 10.76793 33690 ft 441 kts 171°
2026-05-07 09:22 52.07987 10.77694 33989 ft 441 kts 171°
2026-05-07 09:22 52.04965 10.78590 34249 ft 441 kts 171°
2026-05-07 09:22 52.01904 10.79493 34481 ft 441 kts 171°
2026-05-07 09:22 51.98886 10.80386 34719 ft 441 kts 171°
2026-05-07 09:23 51.95872 10.81278 34947 ft 441 kts 171°
2026-05-07 09:23 51.92850 10.82171 35174 ft 441 kts 171°
2026-05-07 09:23 51.89829 10.83060 35399 ft 441 kts 171°
2026-05-07 09:23 51.86775 10.83957 35616 ft 441 kts 171°
2026-05-07 09:24 51.83762 10.84845 35822 ft 441 kts 171°
2026-05-07 09:24 51.80707 10.85748 36026 ft 441 kts 171°
2026-05-07 09:24 51.77690 10.86636 36229 ft 441 kts 171°
2026-05-07 09:24 51.74672 10.87522 36421 ft 441 kts 171°
2026-05-07 09:25 51.71656 10.88407 36618 ft 441 kts 171°
2026-05-07 09:25 51.68627 10.89292 36799 ft 441 kts 171°
2026-05-07 09:25 51.65604 10.90228 36962 ft 441 kts 169°
2026-05-07 09:25 51.62600 10.91321 36997 ft 443 kts 167°
2026-05-07 09:26 51.56595 10.93804 36992 ft 443 kts 166°
2026-05-07 09:26 51.50626 10.96314 36987 ft 443 kts 167°
2026-05-07 09:27 51.44645 10.98706 36984 ft 443 kts 167°
2026-05-07 09:28 51.35613 11.02199 36979 ft 443 kts 168°
2026-05-07 09:28 51.29661 11.04514 36974 ft 443 kts 167°
2026-05-07 09:29 51.23631 11.06877 36970 ft 443 kts 167°
2026-05-07 09:29 51.17597 11.09235 36973 ft 443 kts 167°
2026-05-07 09:30 51.11613 11.11611 36975 ft 444 kts 166°
2026-05-07 09:30 51.05714 11.14558 36978 ft 445 kts 162°
2026-05-07 09:31 51.00707 11.17348 36979 ft 445 kts 162°
2026-05-07 09:31 50.94858 11.20554 36991 ft 445 kts 163°
2026-05-07 09:32 50.88945 11.23658 36981 ft 445 kts 163°
2026-05-07 09:32 50.83059 11.26687 36983 ft 445 kts 163°
2026-05-07 09:33 50.77175 11.29716 36962 ft 445 kts 163°
2026-05-07 09:33 50.71288 11.32755 36970 ft 445 kts 163°
2026-05-07 09:34 50.65405 11.35782 36957 ft 445 kts 163°
2026-05-07 09:34 50.59488 11.38821 36957 ft 445 kts 163°
2026-05-07 09:35 50.53609 11.41840 36946 ft 445 kts 163°
2026-05-07 09:35 50.47722 11.44859 36949 ft 444 kts 163°
2026-05-07 09:36 50.41841 11.47855 36958 ft 445 kts 164°
2026-05-07 09:36 50.35918 11.50863 36955 ft 445 kts 164°
2026-05-07 09:37 50.30056 11.53839 36962 ft 445 kts 164°
2026-05-07 09:37 50.24148 11.56832 36958 ft 444 kts 164°
2026-05-07 09:38 50.18230 11.59824 36952 ft 444 kts 164°
2026-05-07 09:38 50.12353 11.62791 36960 ft 445 kts 164°
2026-05-07 09:39 50.06472 11.65749 36960 ft 444 kts 164°
2026-05-07 09:39 50.00581 11.68700 36962 ft 444 kts 164°
2026-05-07 09:40 49.94689 11.71644 36971 ft 444 kts 165°
2026-05-07 09:40 49.88806 11.74575 36970 ft 444 kts 165°
2026-05-07 09:41 49.82921 11.77500 36971 ft 444 kts 165°
2026-05-07 09:41 49.77015 11.80424 36969 ft 444 kts 165°
2026-05-07 09:42 49.71120 11.83332 36966 ft 443 kts 165°
2026-05-07 09:42 49.65197 11.86254 36965 ft 443 kts 165°
2026-05-07 09:43 49.59325 11.89155 36968 ft 443 kts 165°
2026-05-07 09:43 49.53452 11.92041 36974 ft 443 kts 165°
2026-05-07 09:44 49.47528 11.94847 36980 ft 441 kts 170°
2026-05-07 09:44 49.41519 11.96312 37004 ft 439 kts 174°
2026-05-07 09:45 49.35481 11.97698 37004 ft 439 kts 174°
2026-05-07 09:45 49.29469 11.99079 37005 ft 438 kts 174°
2026-05-07 09:46 49.23418 12.00453 37010 ft 438 kts 174°
2026-05-07 09:46 49.17352 12.01820 37008 ft 437 kts 174°
2026-05-07 09:47 49.11333 12.03181 37011 ft 437 kts 174°
2026-05-07 09:47 49.05321 12.04527 37012 ft 436 kts 174°
2026-05-07 09:48 48.99334 12.05870 37017 ft 435 kts 174°
2026-05-07 09:48 48.93291 12.07232 37030 ft 435 kts 174°
2026-05-07 09:49 48.87314 12.08572 37027 ft 434 kts 174°
2026-05-07 09:49 48.81340 12.09905 37027 ft 433 kts 174°
2026-05-07 09:50 48.75423 12.11221 37026 ft 433 kts 174°
2026-05-07 09:50 48.69418 12.12549 37030 ft 433 kts 174°
2026-05-07 09:51 48.63468 12.13859 37025 ft 432 kts 174°
2026-05-07 09:51 48.58481 12.14961 37030 ft 432 kts 174°
2026-05-07 09:52 48.52541 12.16270 37022 ft 432 kts 175°
2026-05-07 09:52 48.46605 12.17569 37028 ft 431 kts 175°
2026-05-07 09:53 48.40672 12.18878 37027 ft 431 kts 175°
2026-05-07 09:53 48.34735 12.20188 37028 ft 431 kts 175°
2026-05-07 09:54 48.28801 12.21476 37023 ft 431 kts 175°
2026-05-07 09:54 48.22847 12.22770 37022 ft 430 kts 175°
2026-05-07 09:55 48.16904 12.24059 37015 ft 430 kts 175°
2026-05-07 09:55 48.10989 12.25343 37018 ft 430 kts 175°
2026-05-07 09:56 48.04993 12.26636 37022 ft 430 kts 175°
2026-05-07 09:56 47.99111 12.27908 37019 ft 429 kts 175°
2026-05-07 09:57 47.93200 12.29189 37022 ft 429 kts 175°
2026-05-07 09:57 47.87297 12.30446 37023 ft 429 kts 175°
2026-05-07 09:58 47.81390 12.31708 37029 ft 429 kts 175°
2026-05-07 09:58 47.75515 12.32970 37028 ft 429 kts 175°
2026-05-07 09:59 47.69587 12.34238 37028 ft 428 kts 175°
2026-05-07 09:59 47.63640 12.35503 37025 ft 428 kts 175°
2026-05-07 10:00 47.57743 12.36763 37025 ft 428 kts 175°
2026-05-07 10:00 47.51852 12.38109 37027 ft 429 kts 174°
2026-05-07 10:01 47.45977 12.39720 37028 ft 429 kts 173°
2026-05-07 10:01 47.40114 12.41373 37020 ft 429 kts 173°
2026-05-07 10:02 47.34214 12.42977 37022 ft 428 kts 174°
2026-05-07 10:02 47.28358 12.44527 37016 ft 427 kts 174°
2026-05-07 10:03 47.22508 12.46070 37005 ft 427 kts 174°
2026-05-07 10:03 47.16625 12.47632 37002 ft 427 kts 174°
2026-05-07 10:04 47.10785 12.49189 36978 ft 426 kts 174°
2026-05-07 10:04 47.04946 12.50740 36983 ft 427 kts 174°
2026-05-07 10:05 46.99066 12.52280 36983 ft 427 kts 174°
2026-05-07 10:05 46.93216 12.53830 36987 ft 427 kts 174°
2026-05-07 10:06 46.87320 12.55389 36992 ft 427 kts 174°
2026-05-07 10:06 46.81471 12.56924 36999 ft 427 kts 174°
2026-05-07 10:07 46.75585 12.58458 36996 ft 427 kts 174°
2026-05-07 10:07 46.69774 12.60257 36992 ft 431 kts 165°
2026-05-07 10:08 46.64126 12.63489 36981 ft 433 kts 163°
2026-05-07 10:08 46.58512 12.66713 36973 ft 434 kts 164°
2026-05-07 10:09 46.52901 12.69917 36964 ft 433 kts 163°
2026-05-07 10:09 46.47290 12.73121 36959 ft 433 kts 164°
2026-05-07 10:10 46.41646 12.76351 36958 ft 433 kts 164°
2026-05-07 10:10 46.36104 12.79508 36960 ft 433 kts 164°
2026-05-07 10:11 46.31516 12.82116 36974 ft 433 kts 164°
2026-05-07 10:11 46.25917 12.85299 36977 ft 433 kts 164°
2026-05-07 10:12 46.20314 12.88468 36956 ft 432 kts 164°
2026-05-07 10:12 46.14717 12.91630 36955 ft 432 kts 164°
2026-05-07 10:13 46.09130 12.94773 36948 ft 432 kts 165°
2026-05-07 10:13 46.03515 12.97853 36957 ft 431 kts 166°
2026-05-07 10:14 45.97828 13.00728 36958 ft 431 kts 167°
2026-05-07 10:14 45.92177 13.03520 36961 ft 431 kts 167°
2026-05-07 10:15 45.86527 13.06341 36963 ft 431 kts 167°
2026-05-07 10:15 45.80827 13.09228 36969 ft 432 kts 166°
2026-05-07 10:16 45.75167 13.12098 36971 ft 432 kts 167°
2026-05-07 10:16 45.69499 13.14949 36993 ft 432 kts 167°
2026-05-07 10:17 45.63882 13.18082 36999 ft 439 kts 158°
2026-05-07 10:17 45.58765 13.22992 36998 ft 445 kts 151°
2026-05-07 10:18 45.53706 13.28071 37007 ft 445 kts 152°
2026-05-07 10:18 45.48643 13.33137 37007 ft 445 kts 152°
2026-05-07 10:19 45.43580 13.38196 37010 ft 445 kts 152°
2026-05-07 10:19 45.38566 13.43194 37016 ft 445 kts 152°
2026-05-07 10:20 45.33495 13.48232 37014 ft 445 kts 152°
2026-05-07 10:20 45.28422 13.53281 37014 ft 445 kts 152°
2026-05-07 10:21 45.23337 13.58321 37014 ft 445 kts 152°
2026-05-07 10:21 45.18258 13.63335 37013 ft 444 kts 152°
2026-05-07 10:22 45.13185 13.68343 37011 ft 444 kts 152°
2026-05-07 10:22 45.08116 13.73335 37016 ft 444 kts 152°
2026-05-07 10:23 45.03078 13.78281 37023 ft 444 kts 152°
2026-05-07 10:23 44.98003 13.83254 37028 ft 444 kts 152°
2026-05-07 10:24 44.92929 13.88214 37028 ft 443 kts 152°
2026-05-07 10:24 44.88015 13.93534 37029 ft 452 kts 141°
2026-05-07 10:25 44.83594 13.99851 37025 ft 452 kts 141°
2026-05-07 10:25 44.79174 14.06151 37028 ft 452 kts 141°
2026-05-07 10:26 44.74748 14.12418 37023 ft 451 kts 141°
2026-05-07 10:26 44.70321 14.18671 37028 ft 451 kts 141°
2026-05-07 10:27 44.65895 14.24924 37027 ft 451 kts 141°
2026-05-07 10:27 44.61471 14.31171 37028 ft 451 kts 141°
2026-05-07 10:28 44.57053 14.37394 36605 ft 449 kts 141°
2026-05-07 10:28 44.54841 14.40489 35936 ft 449 kts 142°
2026-05-07 10:28 44.52634 14.43572 35270 ft 449 kts 142°
2026-05-07 10:28 44.50424 14.46657 34608 ft 448 kts 142°
2026-05-07 10:29 44.48215 14.49740 33923 ft 448 kts 142°
2026-05-07 10:29 44.46004 14.52827 33128 ft 449 kts 142°
2026-05-07 10:29 44.43789 14.55917 32274 ft 451 kts 141°
2026-05-07 10:30 44.39318 14.62148 30602 ft 455 kts 141°
2026-05-07 10:30 44.37089 14.65256 29963 ft 451 kts 141°
2026-05-07 10:30 44.34876 14.68342 29259 ft 447 kts 141°
2026-05-07 10:30 44.32650 14.71338 28595 ft 442 kts 143°
2026-05-07 10:31 44.30370 14.74172 27968 ft 436 kts 145°
2026-05-07 10:31 44.28056 14.76881 27355 ft 431 kts 146°
2026-05-07 10:31 44.25743 14.79512 26754 ft 427 kts 147°
2026-05-07 10:31 44.23442 14.82119 26170 ft 424 kts 146°
2026-05-07 10:32 44.21172 14.84716 25605 ft 421 kts 146°
2026-05-07 10:32 44.18932 14.87314 25040 ft 418 kts 145°
2026-05-07 10:32 44.16717 14.89912 24490 ft 414 kts 145°
2026-05-07 10:32 44.14526 14.92499 23954 ft 411 kts 144°
2026-05-07 10:33 44.12358 14.95069 23381 ft 408 kts 144°
2026-05-07 10:33 44.10208 14.97613 22786 ft 404 kts 144°
2026-05-07 10:33 44.08069 15.00134 22214 ft 401 kts 144°
2026-05-07 10:33 44.05947 15.02622 21670 ft 398 kts 144°
2026-05-07 10:34 44.03840 15.05085 21131 ft 394 kts 144°
2026-05-07 10:34 44.01746 15.07532 20613 ft 391 kts 144°
2026-05-07 10:34 43.99671 15.09958 20089 ft 388 kts 144°
2026-05-07 10:34 43.97609 15.12363 19578 ft 386 kts 144°
2026-05-07 10:35 43.95555 15.14753 19070 ft 385 kts 144°
2026-05-07 10:35 43.93512 15.17126 18592 ft 382 kts 143°
2026-05-07 10:35 43.91488 15.19508 18088 ft 380 kts 143°
2026-05-07 10:35 43.89492 15.21898 17593 ft 378 kts 142°
2026-05-07 10:36 43.87518 15.24284 17108 ft 375 kts 142°
2026-05-07 10:36 43.85563 15.26651 16632 ft 372 kts 142°
2026-05-07 10:36 43.83621 15.28994 16197 ft 369 kts 142°
2026-05-07 10:36 43.81688 15.31315 15787 ft 366 kts 142°
2026-05-07 10:37 43.79770 15.33608 15366 ft 363 kts 142°
2026-05-07 10:37 43.77864 15.35882 14932 ft 360 kts 142°
2026-05-07 10:37 43.75970 15.38138 14506 ft 357 kts 142°
2026-05-07 10:37 43.74096 15.40369 14086 ft 355 kts 142°
2026-05-07 10:38 43.72234 15.42586 13639 ft 352 kts 142°
2026-05-07 10:38 43.70384 15.44787 13156 ft 349 kts 142°
2026-05-07 10:38 43.68550 15.46970 12681 ft 346 kts 142°
2026-05-07 10:38 43.66732 15.49127 12205 ft 344 kts 143°
2026-05-07 10:39 43.64923 15.51269 11733 ft 341 kts 142°
2026-05-07 10:39 43.63131 15.53391 11273 ft 338 kts 143°
2026-05-07 10:39 43.61351 15.55502 10822 ft 336 kts 142°
2026-05-07 10:39 43.59589 15.57587 10368 ft 333 kts 142°
2026-05-07 10:40 43.57847 15.59647 10132 ft 324 kts 142°
2026-05-07 10:40 43.56176 15.61628 10002 ft 311 kts 142°
2026-05-07 10:40 43.54565 15.63536 9882 ft 300 kts 143°
2026-05-07 10:40 43.53009 15.65375 9741 ft 289 kts 143°
2026-05-07 10:41 43.51498 15.67157 9481 ft 284 kts 143°
2026-05-07 10:41 43.50003 15.68915 9150 ft 281 kts 143°
2026-05-07 10:41 43.48524 15.70654 8802 ft 279 kts 143°
2026-05-07 10:41 43.47052 15.72382 8444 ft 277 kts 143°
2026-05-07 10:42 43.45593 15.74093 8087 ft 275 kts 143°
2026-05-07 10:42 43.44630 15.75221 7844 ft 274 kts 143°
2026-05-07 10:42 43.43188 15.76910 7491 ft 272 kts 142°
2026-05-07 10:42 43.41753 15.78590 7148 ft 270 kts 142°
2026-05-07 10:43 43.40331 15.80257 6793 ft 268 kts 142°
2026-05-07 10:43 43.38931 15.81934 6439 ft 266 kts 141°
2026-05-07 10:43 43.37594 15.83673 6062 ft 264 kts 138°
2026-05-07 10:43 43.36291 15.85438 5702 ft 262 kts 139°
2026-05-07 10:44 43.35017 15.87183 5485 ft 253 kts 138°
2026-05-07 10:44 43.33795 15.88854 5353 ft 242 kts 138°
2026-05-07 10:44 43.32850 15.90713 5232 ft 237 kts 115°
2026-05-07 10:44 43.32610 15.92943 4976 ft 241 kts 88°
2026-05-07 10:45 43.33180 15.95124 4634 ft 249 kts 58°
2026-05-07 10:45 43.34350 15.96880 4350 ft 248 kts 50°
2026-05-07 10:45 43.35555 15.98554 4084 ft 246 kts 50°
2026-05-07 10:45 43.36753 16.00221 3811 ft 244 kts 50°
2026-05-07 10:46 43.37941 16.01879 3530 ft 243 kts 50°
2026-05-07 10:46 43.39122 16.03530 3260 ft 241 kts 51°
2026-05-07 10:46 43.40251 16.05206 3038 ft 234 kts 58°
2026-05-07 10:46 43.41179 16.06968 2991 ft 221 kts 60°
2026-05-07 10:47 43.42065 16.08607 3001 ft 207 kts 59°
2026-05-07 10:47 43.42916 16.10136 3027 ft 197 kts 59°
2026-05-07 10:47 43.43744 16.11617 3008 ft 194 kts 60°
2026-05-07 10:47 43.44560 16.13076 2848 ft 190 kts 59°
2026-05-07 10:48 43.45353 16.14492 2632 ft 184 kts 60°
2026-05-07 10:48 43.46088 16.15804 2412 ft 173 kts 61°
2026-05-07 10:48 43.46812 16.17098 2178 ft 168 kts 61°
2026-05-07 10:48 43.47520 16.18366 1947 ft 166 kts 61°
2026-05-07 10:49 43.48211 16.19601 1748 ft 158 kts 62°
2026-05-07 10:49 43.48857 16.20752 1555 ft 147 kts 62°
2026-05-07 10:49 43.49462 16.21836 1338 ft 139 kts 62°
2026-05-07 10:49 43.50047 16.22887 1130 ft 138 kts 62°
2026-05-07 10:50 43.50624 16.23924 947 ft 135 kts 58°
2026-05-07 10:50 43.51186 16.24932 773 ft 132 kts 58°
2026-05-07 10:50 43.51742 16.25928 598 ft 130 kts 54°
2026-05-07 10:50 43.52294 16.26920 415 ft 133 kts 57°
2026-05-07 10:51 43.52856 16.27929 252 ft 132 kts 54°
2026-05-07 10:51 43.53402 16.28911 85 ft 123 kts 52°
2026-05-07 10:51 43.53802 16.29629 72 ft 54 kts 53°
2026-05-07 10:51 43.53934 16.29866 69 ft 26 kts 53°
2026-05-07 10:52 43.54031 16.30044 59 ft 18 kts 52°
2026-05-07 10:52 43.54031 16.30108 58 ft 9 kts 164°
2026-05-07 10:52 43.53984 16.30091 62 ft 5 kts 196°
2026-05-07 10:52 43.53933 16.30071 67 ft 9 kts 196°
2026-05-07 10:53 43.53885 16.30023 65 ft 14 kts 232°
2026-05-07 10:53 43.53828 16.29920 63 ft 13 kts 232°
2026-05-07 10:53 43.53777 16.29827 58 ft 12 kts 233°
2026-05-07 10:53 43.53731 16.29743 63 ft 10 kts 233°
2026-05-07 10:54 43.53690 16.29669 66 ft 9 kts 232°
2026-05-07 10:54 43.53645 16.29599 66 ft 9 kts 210°
2026-05-07 10:54 43.53589 16.29625 61 ft 9 kts 142°
2026-05-07 10:54 43.53551 16.29665 67 ft 4 kts 146°
2026-05-07 10:55 43.53530 16.29660 67 ft 5 kts 202°
2026-05-07 10:55 43.53505 16.29650 67 ft 2 kts 180°
2026-05-07 10:55 43.53501 16.29651 67 ft 0 kts 174°